{"data":{"norad_id":59625,"intl_designator":"2024-081A","name":"LEGION 1","alt_names":[],"object_type":"PAYLOAD","status":"ACTIVE","operator":null,"country":"US","launch_date":"2024-05-02","launch_site_code":"AFWTR","launch_vehicle":null,"mission":null,"orbit_class":"UNKNOWN","rcs_meters":null,"size_class":null,"mass_kg":null,"dimensions":null,"purposes":["earth_obs"],"wikipedia_slug":null,"has_3d_model":false,"image_url":null,"decayed_at":null,"tle_current":{"epoch":"2026-09-19T22:48:53.015904Z","epoch_age_seconds":65841,"freshness":"FRESH","line1":"1 59625U 24081A   26262.95061361  .00002314  00000+0  11966-3 0  9996","line2":"2 59625  97.4946 339.7954 0010230  46.4998 313.7084 15.17219393131905","mean_motion":15.17219393,"eccentricity":0.001023,"inclination_deg":97.4946,"raan_deg":339.7954,"arg_perigee_deg":46.4998,"mean_anomaly_deg":313.7084,"bstar":0.00011966,"rev_number":13190,"period_min":94.9104662545,"perigee_km":507.19797685836,"apogee_km":521.29979838443,"semimajor_km":6892.3858876214,"source":"CELESTRAK","updated_at":"2026-09-20T09:00:33.979154Z"}}}